This is the latest recevied weather packets stored in our database for station/object KE8KMM. If no packets are shown the sender has not sent any weather packets the latest 10 day(s).
| Time | Temp. | Humidity | Pressure | Rain* | Wind** | Luminosity | Snow |
|---|---|---|---|---|---|---|---|
| 1777919238 | 22.78° C | 57% | 1006.1 hPa | 0 mm | - | 673 W/m² | - |
| 1777918935 | 22.22° C | 57% | 1006 hPa | 0 mm | - | 690 W/m² | - |
| 1777918633 | 22.22° C | 60% | 1006.1 hPa | 0 mm | - | 668 W/m² | - |
| 1777918330 | 22.22° C | 59% | 1006.1 hPa | 0 mm | - | 662 W/m² | - |
| 1777918029 | 22.22° C | 59% | 1006.1 hPa | 0 mm | - | 679 W/m² | - |
| 1777917727 | 22.22° C | 57% | 1006.1 hPa | 0 mm | - | 688 W/m² | - |
| 1777917424 | 21.67° C | 58% | 1006.3 hPa | 0 mm | - | 688 W/m² | - |
| 1777917121 | 21.67° C | 59% | 1006.4 hPa | 0 mm | - | 688 W/m² | - |
| 1777916819 | 21.67° C | 58% | 1006.7 hPa | 0 mm | - | 688 W/m² | - |
| 1777916516 | 21.11° C | 62% | 1006.4 hPa | 0 mm | - | 693 W/m² | - |
| 1777916213 | 21.11° C | 62% | 1006.6 hPa | 0 mm | - | 689 W/m² | - |
| 1777915910 | 21.67° C | 57% | 1006.5 hPa | 0 mm | - | 702 W/m² | - |
| 1777915607 | 21.67° C | 60% | 1006.9 hPa | 0 mm | - | 699 W/m² | - |
| 1777915303 | 21.11° C | 62% | 1006.8 hPa | 0 mm | - | 699 W/m² | - |
| 1777914999 | 20.56° C | 59% | 1006.7 hPa | 0 mm | - | 684 W/m² | - |
| 1777914697 | 20.56° C | 60% | 1006.8 hPa | 0 mm | - | 668 W/m² | - |
| 1777914393 | 21.11° C | 60% | 1006.9 hPa | 0 mm | - | 681 W/m² | - |
| 1777914091 | 20.56° C | 61% | 1006.8 hPa | 0 mm | - | 691 W/m² | - |
| 1777913786 | 20.56° C | 59% | 1007.4 hPa | 0 mm | - | 686 W/m² | - |
| 1777913483 | 20.56° C | 61% | 1007.3 hPa | 0 mm | - | 665 W/m² | - |
| 1777913180 | 20° C | 60% | 1007.3 hPa | 0 mm | - | 619 W/m² | - |
| 1777912876 | 20° C | 59% | 1007.4 hPa | 0 mm | - | 619 W/m² | - |
| 1777912573 | 20° C | 62% | 1007.2 hPa | 0 mm | - | 645 W/m² | - |
| 1777912269 | 20° C | 63% | 1007.3 hPa | 0 mm | - | 655 W/m² | - |
| 1777911965 | 20° C | 59% | 1007.3 hPa | 0 mm | - | 661 W/m² | - |
* Rain latest hour (hover to see other rain measurements)
** Current wind speed in m/s (hover to see current wind gust speed)